This is the latest recevied weather packets stored in our database for station/object LY3FF-10. If no packets are shown the sender has not sent any weather packets the latest 10 day(s).
| Time | Temp. | Humidity | Pressure | Rain* | Wind** | Luminosity | Snow |
|---|---|---|---|---|---|---|---|
| 1777660247 | 13.89° C | 43% | 1001.7 hPa | - | - | - | - |
| 1777659472 | 13.89° C | 42% | 1001.9 hPa | - | - | - | - |
| 1777658713 | 14.44° C | 42% | 1001.8 hPa | - | - | - | - |
| 1777657902 | 15° C | 41% | 1001.8 hPa | - | - | - | - |
| 1777657023 | 15° C | 40% | 1001.8 hPa | - | - | - | - |
| 1777656242 | 15.56° C | 39% | 1001.8 hPa | - | - | - | - |
| 1777655497 | 16.11° C | 39% | 1001.9 hPa | - | - | - | - |
| 1777654697 | 17.78° C | 38% | 1001.8 hPa | - | - | - | - |
| 1777653972 | 18.33° C | 37% | 1001.9 hPa | - | - | - | - |
| 1777653137 | 17.22° C | 37% | 1002.1 hPa | - | - | - | - |
| 1777652382 | 17.22° C | 38% | 1002.2 hPa | - | - | - | - |
| 1777651648 | 17.22° C | 38% | 1002.3 hPa | - | - | - | - |
| 1777650787 | 18.33° C | 37% | 1002.3 hPa | - | - | - | - |
| 1777649987 | 18.33° C | 36% | 1002.4 hPa | - | - | - | - |
| 1777649142 | 19.44° C | 34% | 1002.3 hPa | - | - | - | - |
| 1777648337 | 20° C | 35% | 1002.3 hPa | - | - | - | - |
| 1777647593 | 21.67° C | 35% | 1002.5 hPa | - | - | - | - |
| 1777646836 | 20.56° C | 35% | 1002.5 hPa | - | - | - | - |
| 1777646067 | 20.56° C | 36% | 1002.6 hPa | - | - | - | - |
| 1777645348 | 24.44° C | 36% | 1002.6 hPa | - | - | - | - |
| 1777644597 | 20.56° C | 36% | 1002.7 hPa | - | - | - | - |
| 1777643752 | 24.44° C | 37% | 1002.8 hPa | - | - | - | - |
| 1777643017 | 18.89° C | 38% | 1002.9 hPa | - | - | - | - |
| 1777642142 | 31.67° C | 39% | 1002.9 hPa | - | - | - | - |
| 1777641353 | 30.56° C | 38% | 1003 hPa | - | - | - | - |
* Rain since midnight (hover to see other rain measurements)
** Current wind speed in m/s (hover to see current wind gust speed)